SV7GBF-2 Weather Reports


time (UTC)temp
C
wind
direction
speed
KPH
gust
KPH
rain 1hr
cm
rain 24hr
cm
rain mn
cm
humidity
%
barometer
mb
20260506153404 21 0 0.0 0.0 0.00 0.00 0.00 31
20260506152403 22 0 0.0 0.0 0.00 0.00 0.00 24
20260506151403 22 0 0.0 0.0 0.00 0.00 0.00 21
20260506145404 24 0 0.0 0.0 0.00 0.00 0.00 10
20260506144404 24 0 0.0 0.0 0.00 0.00 0.00 13
20260506143404 24 0 0.0 0.0 0.00 0.00 0.00 10
20260506142404 25 0 0.0 0.0 0.00 0.00 0.00 10
20260506141403 26 0 0.0 0.0 0.00 0.00 0.00 10
20260506140403 26 0 0.0 0.0 0.00 0.00 0.00 10
20260506133403 26 0 0.0 0.0 0.00 0.00 0.00 10
20260506131403 26 0 0.0 0.0 0.00 0.00 0.00 10
20260506125404 26 0 0.0 0.0 0.00 0.00 0.00 10
20260506124405 26 0 0.0 0.0 0.00 0.00 0.00 10
20260506123403 26 0 0.0 0.0 0.00 0.00 0.00 10
20260506122404 26 0 0.0 0.0 0.00 0.00 0.00 10
20260506121405 26 0 0.0 0.0 0.00 0.00 0.00 10
20260506115405 25 0 0.0 0.0 0.00 0.00 0.00 10
20260506114403 24 0 0.0 0.0 0.00 0.00 0.00 10
20260506113403 23 0 0.0 0.0 0.00 0.00 0.00 13
20260506112404 22 0 0.0 0.0 0.00 0.00 0.00 24
20260506111403 22 0 0.0 0.0 0.00 0.00 0.00 25
20260506110404 21 0 0.0 0.0 0.00 0.00 0.00 25
20260506105404 21 0 0.0 0.0 0.00 0.00 0.00 26
20260506104403 22 0 0.0 0.0 0.00 0.00 0.00 26
20260506103405 20 0 0.0 0.0 0.00 0.00 0.00 34
20260506102404 20 0 0.0 0.0 0.00 0.00 0.00 42
20260506101406 20 0 0.0 0.0 0.00 0.00 0.00 44
20260506100404 19 0 0.0 0.0 0.00 0.00 0.00 44
20260506095406 19 0 0.0 0.0 0.00 0.00 0.00 46
20260506092403 18 0 0.0 0.0 0.00 0.00 0.00 45
20260506090404 18 0 0.0 0.0 0.00 0.00 0.00 38
20260506085403 18 0 0.0 0.0 0.00 0.00 0.00 40
20260506084405 18 0 0.0 0.0 0.00 0.00 0.00 39
20260506083403 18 0 0.0 0.0 0.00 0.00 0.00 36
20260506082403 18 0 0.0 0.0 0.00 0.00 0.00 36
20260506081405 18 0 0.0 0.0 0.00 0.00 0.00 36
20260506080404 18 0 0.0 0.0 0.00 0.00 0.00 37
20260506073403 17 0 0.0 0.0 0.00 0.00 0.00 40
20260506072404 17 0 0.0 0.0 0.00 0.00 0.00 40
20260506071403 17 0 0.0 0.0 0.00 0.00 0.00 43
20260506070405 17 0 0.0 0.0 0.00 0.00 0.00 44
20260506043405 11 0 0.0 0.0 0.00 0.00 0.00 69
20260506042404 11 0 0.0 0.0 0.00 0.00 0.00 67
20260506041405 11 0 0.0 0.0 0.00 0.00 0.00 64
20260506035406 11 0 0.0 0.0 0.00 0.00 0.00 62
20260506034405 11 0 0.0 0.0 0.00 0.00 0.00 63
20260506033403 11 0 0.0 0.0 0.00 0.00 0.00 61
20260506032404 11 0 0.0 0.0 0.00 0.00 0.00 60
20260506031403 11 0 0.0 0.0 0.00 0.00 0.00 60
20260506030404 11 0 0.0 0.0 0.00 0.00 0.00 61
20260506025404 11 0 0.0 0.0 0.00 0.00 0.00 58
20260506024405 12 0 0.0 0.0 0.00 0.00 0.00 56
20260506023404 12 0 0.0 0.0 0.00 0.00 0.00 60
20260506022404 12 0 0.0 0.0 0.00 0.00 0.00 60
20260506021405 12 0 0.0 0.0 0.00 0.00 0.00 60
20260506020405 12 0 0.0 0.0 0.00 0.00 0.00 62
20260506015404 12 0 0.0 0.0 0.00 0.00 0.00 63
20260506014404 12 0 0.0 0.0 0.00 0.00 0.00 62
20260506012405 12 0 0.0 0.0 0.00 0.00 0.00 64
20260506011405 12 0 0.0 0.0 0.00 0.00 0.00 60
20260506010405 12 0 0.0 0.0 0.00 0.00 0.00 60
20260506005404 12 0 0.0 0.0 0.00 0.00 0.00 56
20260506004405 13 0 0.0 0.0 0.00 0.00 0.00 54
20260506003404 13 0 0.0 0.0 0.00 0.00 0.00 56
20260506002404 13 0 0.0 0.0 0.00 0.00 0.00 59
20260506001404 13 0 0.0 0.0 0.00 0.00 0.00 60
20260506000406 13 0 0.0 0.0 0.00 0.00 0.00 60
20260505235404 13 0 0.0 0.0 0.00 0.00 0.00 61
20260505234404 13 0 0.0 0.0 0.00 0.00 0.00 61
20260505233403 13 0 0.0 0.0 0.00 0.00 0.00 62
20260505232404 13 0 0.0 0.0 0.00 0.00 0.00 60
20260505231404 13 0 0.0 0.0 0.00 0.00 0.00 64
20260505225404 13 0 0.0 0.0 0.00 0.00 0.00 66
20260505224404 13 0 0.0 0.0 0.00 0.00 0.00 68
20260505223403 13 0 0.0 0.0 0.00 0.00 0.00 68
20260505222403 13 0 0.0 0.0 0.00 0.00 0.00 65
20260505221404 14 0 0.0 0.0 0.00 0.00 0.00 72
20260505220405 14 0 0.0 0.0 0.00 0.00 0.00 72
20260505215404 13 0 0.0 0.0 0.00 0.00 0.00 73
20260505214404 13 0 0.0 0.0 0.00 0.00 0.00 73
20260505213404 13 0 0.0 0.0 0.00 0.00 0.00 68
20260505212404 14 0 0.0 0.0 0.00 0.00 0.00 70
20260505211405 14 0 0.0 0.0 0.00 0.00 0.00 70
20260505210404 14 0 0.0 0.0 0.00 0.00 0.00 69
20260505205405 15 0 0.0 0.0 0.00 0.00 0.00 70
20260505204404 15 0 0.0 0.0 0.00 0.00 0.00 70
20260505203405 15 0 0.0 0.0 0.00 0.00 0.00 73
20260505201406 15 0 0.0 0.0 0.00 0.00 0.00 68
20260505193404 15 0 0.0 0.0 0.00 0.00 0.00 73
20260505192404 15 0 0.0 0.0 0.00 0.00 0.00 71
20260505191403 15 0 0.0 0.0 0.00 0.00 0.00 68
20260505185403 16 0 0.0 0.0 0.00 0.00 0.00 74
20260505183403 15 0 0.0 0.0 0.00 0.00 0.00 70
20260505182403 16 0 0.0 0.0 0.00 0.00 0.00 67
20260505181405 16 0 0.0 0.0 0.00 0.00 0.00 63
20260505180403 16 0 0.0 0.0 0.00 0.00 0.00 63
20260505175403 17 0 0.0 0.0 0.00 0.00 0.00 58
20260505173403 18 0 0.0 0.0 0.00 0.00 0.00 54
20260505172405 18 0 0.0 0.0 0.00 0.00 0.00 53
20260505171405 18 0 0.0 0.0 0.00 0.00 0.00 57
20260505170405 17 0 0.0 0.0 0.00 0.00 0.00 57
20260505165405 17 0 0.0 0.0 0.00 0.00 0.00 55
20260505164405 17 0 0.0 0.0 0.00 0.00 0.00 53
20260505163404 18 0 0.0 0.0 0.00 0.00 0.00 51
20260505162405 18 0 0.0 0.0 0.00 0.00 0.00 50
20260505160406 18 0 0.0 0.0 0.00 0.00 0.00 47